Location: Bittelbronn
(48.4454°N, 8.5870°E)
Time: 17:41:37
(UTC+00:00)

Cosmos 968 Rocket - Pass Details

Date: 23 May 2024
Orbit: 738 x 769 km, 74.0° (Epoch: 16 June)

Event Time Altitude Azimuth Distance (km) Brightness Sun altitude
Exits shadow 02:02:13 17° 211° (SSW) 1,806 4.8 -12.2°
Maximum altitude 02:06:09 73° 294° (WNW) 778 3.5 -11.8°
Drops below altitude 10° 02:11:17 10° 20° (NNE) 2,271 7.2 -11.3°
Sets 02:13:40 0° 22° (NNE) 3,204 8.3 -11.0°
